Location: Bogis-Bossey
(46.3500°N, 6.1667°E)
Time: 18:39:37
(UTC+00:00)

Cosmos 2082 Rocket - Pass Details

Date: 17 August 2022
Orbit: 834 x 852 km, 71.0° (Epoch: 30 September)

Event Time Altitude Azimuth Distance (km) Brightness Sun altitude
Rises 21:32:17 0° 336° (NNW) 3,393 6.7 -24.0°
Reaches altitude 10° 21:34:48 10° 341° (NNW) 2,454 5.6 -24.2°
Maximum altitude 21:40:18 53° 58° (ENE) 1,025 2.5 -24.7°
Enters shadow 21:41:08 48° 89° (E) 1,081 2.5 -24.8°
